| time (UTC) | temp F | wind direction | speed MPH | gust MPH | rain 1hr in | rain 24hr in | rain mn in | humidity % | barometer mb |
| 20260502210003 | 54 | 208 | 9.0 | 15.0 | 0.00 | 0.00 | 0.00 | 77 | 1011.0 |
| 20260502205024 | 54 | 225 | 7.0 | 17.0 | 0.00 | 0.00 | 0.00 | 77 | 1011.1 |
| 20260502204003 | 54 | 226 | 7.0 | 17.0 | 0.00 | 0.00 | 0.00 | 76 | 1010.9 |
| 20260502203003 | 54 | 203 | 8.0 | 17.0 | 0.00 | 0.00 | 0.00 | 75 | 1011.1 |
| 20260502202003 | 55 | 211 | 9.0 | 15.0 | 0.00 | 0.00 | 0.00 | 74 | 1011.3 |
| 20260502201003 | 55 | 198 | 8.0 | 17.0 | 0.00 | 0.00 | 0.00 | 74 | 1011.2 |
| 20260502200003 | 55 | 179 | 9.0 | 17.0 | 0.00 | 0.00 | 0.00 | 72 | 1011.4 |
| 20260502195003 | 56 | 199 | 8.0 | 17.0 | 0.00 | 0.00 | 0.00 | 72 | 1011.6 |
| 20260502193004 | 56 | 206 | 7.0 | 20.0 | 0.00 | 0.00 | 0.00 | 72 | 1011.6 |
| 20260502192003 | 56 | 186 | 9.0 | 19.0 | 0.00 | 0.00 | 0.00 | 71 | 1011.6 |
| 20260502191003 | 56 | 209 | 9.0 | 20.0 | 0.00 | 0.00 | 0.00 | 71 | 1011.9 |
| 20260502190004 | 56 | 186 | 14.0 | 20.0 | 0.00 | 0.00 | 0.00 | 71 | 1012.0 |
| 20260502185024 | 57 | 216 | 11.0 | 23.0 | 0.00 | 0.00 | 0.00 | 73 | 1012.2 |
| 20260502184003 | 57 | 187 | 13.0 | 23.0 | 0.00 | 0.00 | 0.00 | 71 | 1012.3 |
| 20260502183003 | 58 | 204 | 10.0 | 23.0 | 0.00 | 0.00 | 0.00 | 70 | 1011.9 |
| 20260502182004 | 58 | 213 | 9.0 | 24.0 | 0.00 | 0.00 | 0.00 | 68 | 1012.3 |
| 20260502181004 | 59 | 177 | 10.0 | 24.0 | 0.00 | 0.00 | 0.00 | 67 | 1012.4 |
| 20260502164003 | 58 | 170 | 15.0 | 21.0 | 0.00 | 0.00 | 0.00 | 65 | 1012.1 |
| 20260502163003 | 58 | 184 | 10.0 | 17.0 | 0.00 | 0.00 | 0.00 | 65 | 1012.3 |
| 20260502162003 | 58 | 192 | 8.0 | 20.0 | 0.00 | 0.00 | 0.00 | 68 | 1012.3 |
| 20260502161024 | 58 | 204 | 10.0 | 20.0 | 0.00 | 0.00 | 0.00 | 67 | 1012.4 |
| 20260502152003 | 58 | 192 | 11.0 | 20.0 | 0.00 | 0.00 | 0.00 | 67 | 1013.0 |
| 20260502151003 | 59 | 208 | 11.0 | 20.0 | 0.00 | 0.00 | 0.00 | 66 | 1012.8 |
| 20260502123003 | 56 | 221 | 8.0 | 17.0 | 0.00 | 0.00 | 0.00 | 72 | 1013.0 |
| 20260502122003 | 56 | 202 | 8.0 | 17.0 | 0.00 | 0.00 | 0.00 | 73 | 1012.8 |
| 20260502121003 | 54 | 202 | 9.0 | 13.0 | 0.00 | 0.00 | 0.00 | 76 | 1012.9 |
| 20260502115003 | 52 | 217 | 6.0 | 11.0 | 0.00 | 0.00 | 0.00 | 79 | 1012.8 |
| 20260502114003 | 51 | 187 | 8.0 | 15.0 | 0.00 | 0.00 | 0.00 | 80 | 1012.7 |
| 20260502113003 | 50 | 196 | 6.0 | 15.0 | 0.00 | 0.00 | 0.00 | 82 | 1012.7 |
| 20260502112024 | 50 | 208 | 8.0 | 10.0 | 0.00 | 0.00 | 0.00 | 82 | 1012.8 |
| 20260502111004 | 50 | 222 | 4.0 | 12.0 | 0.00 | 0.00 | 0.00 | 83 | 1012.7 |
| 20260502110024 | 49 | 216 | 7.0 | 13.0 | 0.00 | 0.00 | 0.00 | 84 | 1012.8 |
| 20260502105024 | 48 | 211 | 6.0 | 13.0 | 0.00 | 0.00 | 0.00 | 85 | 1012.7 |
| 20260502104003 | 47 | 215 | 6.0 | 9.0 | 0.00 | 0.00 | 0.00 | 85 | 1012.7 |
| 20260502103024 | 47 | 207 | 6.0 | 13.0 | 0.00 | 0.00 | 0.00 | 85 | 1012.5 |
| 20260502102003 | 46 | 204 | 7.0 | 13.0 | 0.00 | 0.00 | 0.00 | 85 | 1012.6 |
| 20260502101003 | 46 | 214 | 6.0 | 10.0 | 0.00 | 0.00 | 0.00 | 83 | 1012.8 |
| 20260502091003 | 45 | 196 | 3.0 | 7.0 | 0.00 | 0.00 | 0.00 | 81 | 1012.1 |
| 20260502071003 | 45 | 133 | 2.0 | 4.0 | 0.00 | 0.00 | 0.00 | 77 | 1012.4 |
| 20260502070024 | 45 | 141 | 2.0 | 3.0 | 0.00 | 0.00 | 0.00 | 76 | 1012.2 |
| 20260502065003 | 45 | 161 | 2.0 | 3.0 | 0.00 | 0.00 | 0.00 | 76 | 1012.3 |
| 20260502064003 | 46 | 182 | 3.0 | 3.0 | 0.00 | 0.00 | 0.00 | 76 | 1012.5 |
| 20260502063004 | 45 | 145 | 2.0 | 3.0 | 0.00 | 0.00 | 0.00 | 76 | 1012.5 |
| 20260502062003 | 46 | 143 | 1.0 | 5.0 | 0.00 | 0.00 | 0.00 | 75 | 1012.3 |
| 20260502061003 | 46 | 178 | 0.0 | 5.0 | 0.00 | 0.00 | 0.00 | 75 | 1012.3 |
| 20260502060003 | 46 | 204 | 4.0 | 6.0 | 0.00 | 0.00 | 0.00 | 76 | 1012.6 |
| 20260502055003 | 46 | 156 | 3.0 | 6.0 | 0.00 | 0.00 | 0.00 | 75 | 1012.6 |
| 20260502054003 | 46 | 186 | 3.0 | 5.0 | 0.00 | 0.00 | 0.00 | 75 | 1012.7 |
| 20260502053003 | 46 | 166 | 2.0 | 5.0 | 0.00 | 0.00 | 0.00 | 75 | 1012.5 |
| 20260502052024 | 46 | 107 | 2.0 | 5.0 | 0.00 | 0.00 | 0.00 | 74 | 1012.5 |
| 20260502051003 | 47 | 81 | 4.0 | 5.0 | 0.00 | 0.00 | 0.00 | 73 | 1012.5 |
| 20260502050003 | 48 | 101 | 3.0 | 5.0 | 0.00 | 0.00 | 0.00 | 73 | 1012.5 |
| 20260502045003 | 48 | 89 | 2.0 | 6.0 | 0.00 | 0.00 | 0.00 | 72 | 1012.8 |
| 20260502044003 | 48 | 164 | 2.0 | 6.0 | 0.00 | 0.00 | 0.00 | 71 | 1012.5 |
| 20260502043024 | 49 | 211 | 4.0 | 6.0 | 0.00 | 0.00 | 0.00 | 70 | 1012.6 |
| 20260502042024 | 49 | 215 | 3.0 | 7.0 | 0.00 | 0.00 | 0.00 | 70 | 1012.4 |
| 20260502041003 | 49 | 219 | 3.0 | 7.0 | 0.00 | 0.00 | 0.00 | 70 | 1012.5 |
| 20260502040003 | 49 | 225 | 4.0 | 6.0 | 0.00 | 0.00 | 0.00 | 70 | 1012.3 |
| 20260502035004 | 49 | 236 | 5.0 | 6.0 | 0.00 | 0.00 | 0.00 | 69 | 1012.5 |
| 20260502034024 | 49 | 230 | 5.0 | 6.0 | 0.00 | 0.00 | 0.00 | 69 | 1012.6 |
| 20260502033024 | 49 | 239 | 4.0 | 8.0 | 0.00 | 0.00 | 0.00 | 69 | 1012.4 |
| 20260502032003 | 49 | 232 | 4.0 | 8.0 | 0.00 | 0.00 | 0.00 | 69 | 1012.5 |
| 20260502031024 | 49 | 234 | 5.0 | 7.0 | 0.00 | 0.00 | 0.00 | 68 | 1012.3 |
| 20260502030003 | 50 | 239 | 4.0 | 7.0 | 0.00 | 0.00 | 0.00 | 68 | 1012.1 |
| 20260502025025 | 49 | 259 | 3.0 | 7.0 | 0.00 | 0.00 | 0.00 | 68 | 1012.0 |
| 20260502024003 | 50 | 244 | 4.0 | 6.0 | 0.00 | 0.00 | 0.00 | 68 | 1012.1 |
| 20260502023003 | 50 | 228 | 4.0 | 6.0 | 0.00 | 0.00 | 0.00 | 67 | 1012.1 |
| 20260502022003 | 50 | 229 | 5.0 | 7.0 | 0.00 | 0.00 | 0.00 | 67 | 1012.0 |
| 20260502021004 | 50 | 238 | 4.0 | 8.0 | 0.00 | 0.00 | 0.00 | 66 | 1012.2 |
| 20260502020003 | 50 | 251 | 4.0 | 8.0 | 0.00 | 0.00 | 0.00 | 66 | 1012.3 |
| 20260502015003 | 50 | 267 | 4.0 | 8.0 | 0.00 | 0.00 | 0.00 | 66 | 1012.1 |
| 20260502014003 | 51 | 234 | 7.0 | 8.0 | 0.00 | 0.00 | 0.00 | 65 | 1012.3 |
| 20260502013003 | 51 | 231 | 4.0 | 7.0 | 0.00 | 0.00 | 0.00 | 65 | 1012.1 |
| 20260502012003 | 51 | 239 | 5.0 | 8.0 | 0.00 | 0.00 | 0.00 | 64 | 1011.8 |
| 20260502011003 | 52 | 228 | 5.0 | 8.0 | 0.00 | 0.00 | 0.00 | 64 | 1011.5 |
| 20260502010003 | 52 | 235 | 4.0 | 9.0 | 0.00 | 0.00 | 0.00 | 63 | 1011.8 |
| 20260502005024 | 52 | 278 | 4.0 | 10.0 | 0.00 | 0.00 | 0.00 | 63 | 1011.5 |
| 20260502004003 | 53 | 226 | 8.0 | 10.0 | 0.00 | 0.00 | 0.00 | 63 | 1011.2 |
| 20260502003003 | 53 | 223 | 6.0 | 8.0 | 0.00 | 0.00 | 0.00 | 63 | 1011.0 |
| 20260502002003 | 54 | 222 | 5.0 | 7.0 | 0.00 | 0.00 | 0.00 | 62 | 1010.8 |
| 20260502001003 | 54 | 227 | 4.0 | 7.0 | 0.00 | 0.00 | 0.00 | 62 | 1010.7 |
| 20260502000024 | 54 | 223 | 4.0 | 7.0 | 0.00 | 0.00 | 0.00 | 62 | 1010.5 |
| 20260501235003 | 55 | 218 | 5.0 | 7.0 | 0.00 | 0.00 | 0.00 | 61 | 1010.5 |
| 20260501234024 | 56 | 220 | 3.0 | 6.0 | 0.00 | 0.00 | 0.00 | 60 | 1010.3 |
| 20260501233004 | 56 | 211 | 4.0 | 9.0 | 0.00 | 0.00 | 0.00 | 60 | 1010.1 |
| 20260501232003 | 56 | 214 | 5.0 | 10.0 | 0.00 | 0.00 | 0.00 | 59 | 1010.0 |
| 20260501231024 | 57 | 214 | 6.0 | 10.0 | 0.00 | 0.00 | 0.00 | 58 | 1010.1 |
| 20260501230003 | 57 | 207 | 6.0 | 13.0 | 0.00 | 0.00 | 0.00 | 57 | 1010.1 |
| 20260501225003 | 58 | 224 | 6.0 | 13.0 | 0.00 | 0.00 | 0.00 | 56 | 1009.5 |
| 20260501224003 | 58 | 236 | 6.0 | 15.0 | 0.00 | 0.00 | 0.00 | 57 | 1009.5 |
| 20260501223003 | 58 | 223 | 7.0 | 19.0 | 0.00 | 0.00 | 0.00 | 56 | 1009.8 |
| 20260501222003 | 59 | 226 | 7.0 | 19.0 | 0.00 | 0.00 | 0.00 | 56 | 1009.5 |
| 20260501221003 | 59 | 220 | 9.0 | 17.0 | 0.00 | 0.00 | 0.00 | 54 | 1009.3 |
| 20260501220003 | 60 | 211 | 8.0 | 15.0 | 0.00 | 0.00 | 0.00 | 54 | 1009.2 |
| 20260501215003 | 61 | 218 | 9.0 | 16.0 | 0.00 | 0.00 | 0.00 | 52 | 1009.0 |
| 20260501214024 | 61 | 217 | 8.0 | 16.0 | 0.00 | 0.00 | 0.00 | 51 | 1009.2 |
| 20260501213003 | 62 | 226 | 8.0 | 16.0 | 0.00 | 0.00 | 0.00 | 48 | 1009.0 |
| 20260501212003 | 63 | 226 | 7.0 | 16.0 | 0.00 | 0.00 | 0.00 | 48 | 1008.9 |
| 20260501211003 | 64 | 214 | 10.0 | 16.0 | 0.00 | 0.00 | 0.00 | 43 | 1009.1 |